Simultaneous Nadir Overpasses (SNOs) Predictions

Prediction of SNOs between GOES-15 and METOP-A Satellite Orbit:

Table of predicted SNOs for the next 14.0 days since TLE Epoch: 11/10/2014
Index Date Time (GOES-15) GOES-15 Lat,Lon METOP-A Lat,Lon Distance(km) Time Diff (sec)
1 11/10/2014 18:39:47 -0.26,-134.69 0.40,-137.57 328.09 80
2 11/11/2014 18:21:49 -0.26,-134.65 -0.72,-132.58 236.22 80
3 11/13/2014 06:40:50 0.25,-134.52 -0.35,-137.17 301.72 80
4 11/14/2014 06:17:32 0.26,-134.48 0.77,-132.18 261.93 80
5 11/15/2014 18:36:24 -0.24,-134.47 0.26,-136.74 258.68 80
6 11/16/2014 18:18:26 -0.25,-134.42 -0.86,-131.75 305.13 80
7 11/18/2014 06:37:26 0.23,-134.29 -0.25,-136.33 233.20 80
8 11/19/2014 06:14:08 0.24,-134.24 0.88,-131.34 329.79 80
9 11/20/2014 18:33:00
